| time (UTC) | temp F | wind direction | speed knots | gust knots | rain 1hr in | rain 24hr in | rain mn in | humidity % | barometer mb |
| 20260504050400 | 56 | 221 | 3.5 | 8.7 | 0.00 | 0.00 | 0.00 | 68 | 1016.4 |
| 20260504045900 | 56 | 213 | 4.3 | 8.7 | 0.00 | 0.00 | 0.00 | 68 | 1016.3 |
| 20260504045400 | 56 | 220 | 3.5 | 7.8 | 0.00 | 0.00 | 0.00 | 68 | 1016.3 |
| 20260504044903 | 57 | 219 | 3.5 | 6.1 | 0.00 | 0.00 | 0.00 | 67 | 1016.4 |
| 20260504044357 | 57 | 248 | 1.7 | 7.0 | 0.00 | 0.00 | 0.00 | 67 | 1016.4 |
| 20260504043854 | 57 | 267 | 2.6 | 7.0 | 0.00 | 0.00 | 0.00 | 67 | 1016.3 |
| 20260504042850 | 57 | 194 | 4.3 | 9.6 | 0.00 | 0.00 | 0.00 | 69 | 1016.2 |
| 20260504042345 | 57 | 208 | 5.2 | 8.7 | 0.00 | 0.00 | 0.00 | 69 | 1016.3 |
| 20260504041842 | 57 | 205 | 4.3 | 12.2 | 0.00 | 0.00 | 0.00 | 69 | 1016.3 |
| 20260504041337 | 57 | 203 | 7.0 | 12.2 | 0.00 | 0.00 | 0.00 | 68 | 1016.3 |
| 20260504040834 | 57 | 169 | 6.1 | 10.4 | 0.00 | 0.00 | 0.00 | 68 | 1016.3 |
| 20260504040334 | 57 | 199 | 6.1 | 13.0 | 0.00 | 0.00 | 0.00 | 67 | 1016.3 |
| 20260504035831 | 57 | 200 | 5.2 | 13.0 | 0.00 | 0.00 | 0.00 | 66 | 1016.2 |
| 20260504035334 | 57 | 215 | 7.0 | 12.2 | 0.00 | 0.00 | 0.00 | 64 | 1016.3 |
| 20260504034833 | 57 | 215 | 6.1 | 12.2 | 0.00 | 0.00 | 0.00 | 64 | 1016.2 |
| 20260504034329 | 57 | 178 | 6.1 | 11.3 | 0.00 | 0.00 | 0.00 | 64 | 1016.2 |
| 20260504033830 | 57 | 173 | 6.1 | 11.3 | 0.00 | 0.00 | 0.00 | 63 | 1016.2 |
| 20260504032829 | 57 | 208 | 6.1 | 9.6 | 0.00 | 0.00 | 0.00 | 63 | 1016.1 |
| 20260504031830 | 57 | 219 | 6.1 | 9.6 | 0.00 | 0.00 | 0.00 | 62 | 1016.1 |
| 20260504031329 | 57 | 175 | 6.1 | 9.6 | 0.00 | 0.00 | 0.00 | 62 | 1016.1 |
| 20260504030830 | 57 | 180 | 4.3 | 7.0 | 0.00 | 0.00 | 0.00 | 61 | 1016.1 |
| 20260504030328 | 57 | 192 | 5.2 | 9.6 | 0.00 | 0.00 | 0.00 | 61 | 1016.0 |
| 20260504025829 | 57 | 186 | 6.1 | 9.6 | 0.00 | 0.00 | 0.00 | 60 | 1016.0 |
| 20260504025330 | 57 | 202 | 5.2 | 7.8 | 0.00 | 0.00 | 0.00 | 60 | 1016.1 |
| 20260504024829 | 57 | 176 | 5.2 | 8.7 | 0.00 | 0.00 | 0.00 | 61 | 1016.1 |
| 20260504024329 | 56 | 194 | 6.1 | 10.4 | 0.00 | 0.00 | 0.00 | 60 | 1016.1 |
| 20260504023829 | 56 | 211 | 5.2 | 10.4 | 0.00 | 0.00 | 0.00 | 59 | 1016.1 |
| 20260504023329 | 56 | 198 | 4.3 | 7.8 | 0.00 | 0.00 | 0.00 | 62 | 1016.1 |
| 20260504021329 | 54 | 252 | 4.3 | 7.0 | 0.00 | 0.00 | 0.00 | 64 | 1016.1 |
| 20260504015830 | 52 | 257 | 3.5 | 7.0 | 0.00 | 0.00 | 0.00 | 67 | 1016.1 |
| 20260504015330 | 51 | 213 | 1.7 | 3.5 | 0.00 | 0.00 | 0.00 | 65 | 1016.1 |
| 20260504014830 | 51 | 234 | 0.9 | 2.6 | 0.00 | 0.00 | 0.00 | 66 | 1016.1 |
| 20260504013829 | 51 | 216 | 1.7 | 2.6 | 0.00 | 0.00 | 0.00 | 66 | 1016.0 |
| 20260504013330 | 51 | 223 | 0.9 | 1.7 | 0.00 | 0.00 | 0.00 | 66 | 1016.0 |
| 20260504012829 | 51 | 277 | 0.9 | 1.7 | 0.00 | 0.00 | 0.00 | 66 | 1016.0 |
| 20260504012328 | 51 | 281 | 0.9 | 1.7 | 0.00 | 0.00 | 0.00 | 64 | 1015.9 |
| 20260504011823 | 52 | 281 | 1.7 | 1.7 | 0.00 | 0.00 | 0.00 | 64 | 1015.8 |
| 20260504011320 | 52 | 286 | 0.0 | 1.7 | 0.00 | 0.00 | 0.00 | 62 | 1015.7 |
| 20260504010816 | 53 | 286 | 0.9 | 1.7 | 0.00 | 0.00 | 0.00 | 62 | 1015.8 |
| 20260504010312 | 53 | 286 | 0.0 | 1.7 | 0.00 | 0.00 | 0.00 | 60 | 1015.7 |
| 20260504005301 | 54 | 286 | 0.9 | 1.7 | 0.00 | 0.00 | 0.00 | 60 | 1015.7 |
| 20260504003801 | 56 | 311 | 0.0 | 0.0 | 0.00 | 0.00 | 0.00 | 50 | 1015.4 |
| 20260504003302 | 56 | 311 | 0.0 | 0.0 | 0.00 | 0.00 | 0.00 | 49 | 1015.3 |
| 20260504002801 | 56 | 311 | 0.0 | 0.9 | 0.00 | 0.00 | 0.00 | 47 | 1015.3 |
| 20260504001800 | 57 | 318 | 0.0 | 0.0 | 0.00 | 0.00 | 0.00 | 45 | 1015.2 |
| 20260504001302 | 58 | 318 | 0.0 | 0.0 | 0.00 | 0.00 | 0.00 | 44 | 1015.1 |
| 20260504000802 | 58 | 318 | 0.0 | 0.0 | 0.00 | 0.00 | 0.00 | 44 | 1015.1 |
| 20260503235804 | 59 | 318 | 0.0 | 0.9 | 0.00 | 0.00 | 0.00 | 41 | 1014.9 |
| 20260503235304 | 60 | 318 | 0.0 | 0.9 | 0.00 | 0.00 | 0.00 | 41 | 1014.9 |
| 20260503234303 | 60 | 74 | 0.0 | 0.9 | 0.00 | 0.00 | 0.00 | 40 | 1014.8 |
| 20260503233801 | 61 | 74 | 0.0 | 2.6 | 0.00 | 0.00 | 0.00 | 39 | 1014.8 |
| 20260503233301 | 61 | 74 | 0.9 | 2.6 | 0.00 | 0.00 | 0.00 | 39 | 1014.7 |
| 20260503232802 | 61 | 38 | 0.9 | 2.6 | 0.00 | 0.00 | 0.00 | 38 | 1014.7 |
| 20260503232257 | 61 | 47 | 0.9 | 1.7 | 0.00 | 0.00 | 0.00 | 39 | 1014.8 |
| 20260503231250 | 61 | 18 | 0.0 | 0.0 | 0.00 | 0.00 | 0.00 | 38 | 1014.8 |
| 20260503230745 | 61 | 18 | 0.0 | 1.7 | 0.00 | 0.00 | 0.00 | 38 | 1014.7 |
| 20260503230241 | 61 | 18 | 0.0 | 1.7 | 0.00 | 0.00 | 0.00 | 38 | 1014.8 |
| 20260503225239 | 61 | 338 | 0.9 | 2.6 | 0.00 | 0.00 | 0.00 | 38 | 1014.7 |
| 20260503223731 | 61 | 333 | 1.7 | 5.2 | 0.00 | 0.00 | 0.00 | 37 | 1014.7 |
| 20260503223230 | 61 | 352 | 3.5 | 5.2 | 0.00 | 0.00 | 0.00 | 37 | 1014.7 |
| 20260503222731 | 61 | 350 | 3.5 | 6.1 | 0.00 | 0.00 | 0.00 | 37 | 1014.6 |
| 20260503222229 | 61 | 336 | 3.5 | 7.8 | 0.00 | 0.00 | 0.00 | 37 | 1014.7 |
| 20260503221729 | 61 | 334 | 5.2 | 7.8 | 0.00 | 0.00 | 0.00 | 35 | 1014.7 |
| 20260503221228 | 61 | 40 | 2.6 | 5.2 | 0.00 | 0.00 | 0.00 | 36 | 1014.8 |
| 20260503220729 | 61 | 317 | 3.5 | 10.4 | 0.00 | 0.00 | 0.00 | 36 | 1014.7 |
| 20260503215730 | 62 | 329 | 6.1 | 13.0 | 0.00 | 0.00 | 0.00 | 30 | 1014.7 |
| 20260503215229 | 62 | 305 | 7.8 | 13.0 | 0.00 | 0.00 | 0.00 | 30 | 1014.6 |
| 20260503214729 | 62 | 309 | 4.3 | 11.3 | 0.00 | 0.00 | 0.00 | 31 | 1014.6 |
| 20260503213729 | 61 | 290 | 2.6 | 11.3 | 0.00 | 0.00 | 0.00 | 31 | 1014.4 |
| 20260503213229 | 61 | 340 | 6.1 | 11.3 | 0.00 | 0.00 | 0.00 | 31 | 1014.7 |
| 20260503212730 | 61 | 306 | 7.8 | 9.6 | 0.00 | 0.00 | 0.00 | 30 | 1014.7 |
| 20260503212229 | 61 | 292 | 3.5 | 9.6 | 0.00 | 0.00 | 0.00 | 33 | 1014.6 |
| 20260503211232 | 61 | 54 | 4.3 | 8.7 | 0.00 | 0.00 | 0.00 | 36 | 1014.5 |
| 20260503210729 | 61 | 32 | 4.3 | 8.7 | 0.00 | 0.00 | 0.00 | 35 | 1014.5 |
| 20260503210229 | 61 | 300 | 6.1 | 8.7 | 0.00 | 0.00 | 0.00 | 35 | 1014.6 |
| 20260503205729 | 61 | 352 | 4.3 | 12.2 | 0.00 | 0.00 | 0.00 | 35 | 1014.5 |
| 20260503205229 | 61 | 318 | 8.7 | 14.8 | 0.00 | 0.00 | 0.00 | 32 | 1014.5 |
| 20260503204728 | 61 | 318 | 10.4 | 14.8 | 0.00 | 0.00 | 0.00 | 30 | 1014.4 |
| 20260503204229 | 61 | 305 | 5.2 | 15.6 | 0.00 | 0.00 | 0.00 | 30 | 1014.4 |
| 20260503203229 | 61 | 327 | 10.4 | 16.5 | 0.00 | 0.00 | 0.00 | 30 | 1014.5 |
| 20260503202729 | 60 | 349 | 4.3 | 13.9 | 0.00 | 0.00 | 0.00 | 33 | 1014.5 |
| 20260503201729 | 60 | 315 | 8.7 | 14.8 | 0.00 | 0.00 | 0.00 | 30 | 1014.5 |
| 20260503201229 | 60 | 291 | 7.8 | 15.6 | 0.00 | 0.00 | 0.00 | 31 | 1014.7 |
| 20260503195729 | 60 | 326 | 8.7 | 15.6 | 0.00 | 0.00 | 0.00 | 32 | 1014.7 |
| 20260503194228 | 60 | 349 | 9.6 | 15.6 | 0.00 | 0.00 | 0.00 | 32 | 1014.8 |
| 20260503193730 | 60 | 307 | 8.7 | 15.6 | 0.00 | 0.00 | 0.00 | 31 | 1015.1 |
| 20260503192730 | 60 | 282 | 7.8 | 13.9 | 0.00 | 0.00 | 0.00 | 33 | 1015.1 |
| 20260503192230 | 59 | 321 | 5.2 | 13.0 | 0.00 | 0.00 | 0.00 | 33 | 1015.2 |
| 20260503191730 | 60 | 320 | 7.8 | 17.4 | 0.00 | 0.00 | 0.00 | 34 | 1015.3 |
| 20260503191230 | 60 | 298 | 12.2 | 17.4 | 0.00 | 0.00 | 0.00 | 33 | 1015.3 |
| 20260503190732 | 60 | 274 | 11.3 | 14.8 | 0.00 | 0.00 | 0.00 | 34 | 1015.3 |
| 20260503185731 | 59 | 340 | 7.8 | 13.0 | 0.00 | 0.00 | 0.00 | 34 | 1015.5 |
| 20260503185230 | 59 | 301 | 10.4 | 13.0 | 0.00 | 0.00 | 0.00 | 34 | 1015.5 |
| 20260503184729 | 58 | 22 | 7.8 | 14.8 | 0.00 | 0.00 | 0.00 | 34 | 1015.5 |
| 20260503184229 | 58 | 298 | 9.6 | 14.8 | 0.00 | 0.00 | 0.00 | 34 | 1015.7 |
| 20260503183729 | 59 | 345 | 9.6 | 13.9 | 0.00 | 0.00 | 0.00 | 34 | 1015.5 |
| 20260503182229 | 58 | 293 | 7.8 | 13.0 | 0.00 | 0.00 | 0.00 | 35 | 1015.7 |
| 20260503181728 | 58 | 312 | 6.1 | 13.0 | 0.00 | 0.00 | 0.00 | 36 | 1015.7 |
| 20260503181229 | 58 | 305 | 8.7 | 13.9 | 0.00 | 0.00 | 0.00 | 35 | 1015.7 |
| 20260503180729 | 58 | 307 | 9.6 | 13.9 | 0.00 | 0.00 | 0.00 | 35 | 1015.9 |
| 20260503175728 | 57 | 312 | 6.1 | 13.0 | 0.00 | 0.00 | 0.00 | 38 | 1015.9 |
| 20260503175228 | 57 | 5 | 8.7 | 13.0 | 0.00 | 0.00 | 0.00 | 37 | 1016.0 |
| 20260503174729 | 57 | 320 | 6.1 | 13.0 | 0.00 | 0.00 | 0.00 | 38 | 1016.0 |
| 20260503174230 | 56 | 307 | 11.3 | 15.6 | 0.00 | 0.00 | 0.00 | 38 | 1016.0 |
| 20260503173729 | 56 | 297 | 9.6 | 15.6 | 0.00 | 0.00 | 0.00 | 39 | 1016.1 |
| 20260503173229 | 56 | 307 | 5.2 | 14.8 | 0.00 | 0.00 | 0.00 | 39 | 1016.1 |
| 20260503172728 | 56 | 9 | 7.0 | 15.6 | 0.00 | 0.00 | 0.00 | 40 | 1016.2 |
| 20260503172229 | 56 | 0 | 4.3 | 16.5 | 0.00 | 0.00 | 0.00 | 42 | 1016.2 |
| 20260503170229 | 55 | 5 | 8.7 | 17.4 | 0.00 | 0.00 | 0.00 | 38 | 1016.2 |
| 20260503160201 | 53 | 348 | 11.3 | 16.5 | 0.00 | 0.00 | 0.00 | 40 | 1016.7 |
| 20260503150202 | 52 | 310 | 10.4 | 18.2 | 0.00 | 0.00 | 0.00 | 40 | 1016.7 |
| 20260503140129 | 51 | 325 | 9.6 | 18.2 | 0.00 | 0.00 | 0.00 | 44 | 1016.6 |
| 20260503130134 | 50 | 335 | 4.3 | 14.8 | 0.00 | 0.00 | 0.00 | 54 | 1016.4 |
| 20260503120105 | 48 | 297 | 9.6 | 18.2 | 0.00 | 0.00 | 0.00 | 58 | 1015.9 |
| 20260503110601 | 47 | 296 | 7.8 | 12.2 | 0.00 | 0.00 | 0.00 | 63 | 1015.4 |
| 20260503081601 | 51 | 314 | 7.8 | 13.0 | 0.00 | 0.00 | 0.00 | 52 | 1013.1 |
| 20260503081101 | 51 | 352 | 7.0 | 13.9 | 0.00 | 0.00 | 0.00 | 52 | 1012.9 |
| 20260503080601 | 51 | 341 | 7.8 | 13.9 | 0.00 | 0.00 | 0.00 | 52 | 1013.0 |
| 20260503072603 | 52 | 331 | 9.6 | 14.8 | 0.00 | 0.00 | 0.00 | 52 | 1012.5 |
| 20260503072102 | 52 | 340 | 7.0 | 11.3 | 0.00 | 0.00 | 0.00 | 53 | 1012.4 |
| 20260503071602 | 52 | 328 | 6.1 | 11.3 | 0.00 | 0.00 | 0.00 | 53 | 1012.4 |
| 20260503071102 | 52 | 342 | 5.2 | 12.2 | 0.00 | 0.00 | 0.00 | 53 | 1012.3 |
| 20260503070603 | 52 | 0 | 9.6 | 13.0 | 0.00 | 0.00 | 0.00 | 54 | 1012.3 |
| 20260503055105 | 53 | 350 | 7.0 | 11.3 | 0.00 | 0.00 | 0.00 | 56 | 1011.9 |
| 20260503054602 | 53 | 306 | 6.1 | 13.0 | 0.00 | 0.00 | 0.00 | 57 | 1011.9 |
| 20260503054101 | 53 | 22 | 5.2 | 13.0 | 0.00 | 0.00 | 0.00 | 58 | 1011.8 |
| 20260503053602 | 53 | 346 | 7.0 | 12.2 | 0.00 | 0.00 | 0.00 | 59 | 1011.9 |
| 20260503053102 | 52 | 337 | 3.5 | 7.8 | 0.00 | 0.00 | 0.00 | 61 | 1011.9 |
| 20260503052601 | 52 | 322 | 5.2 | 7.8 | 0.00 | 0.00 | 0.00 | 63 | 1012.0 |
| 20260503052101 | 51 | 340 | 3.5 | 5.2 | 0.00 | 0.00 | 0.00 | 64 | 1011.8 |